Simultaneous Nadir Overpasses (SNOs) Predictions

Prediction of SNOs between LANDSAT-8 and NOAA-19 Satellite Orbit:

Table of predicted SNOs for the next 14.0 days since TLE Epoch: 10/20/2018
Index Date (LANDSAT-8) Time (LANDSAT-8) Lat,Lon (LANDSAT-8) SZA (LANDSAT-8 ) Date (NOAA-19) Time (NOAA-19) Lat,Lon (NOAA-19) SZA (NOAA-19 ) Distance(km) Time Diff (sec)
1 10/20/2018 07:20:22 -78.10, -94.09 90.93 10/20/2018 07:19:17 -78.08, -94.08 90.96 1.86 65
2 10/20/2018 08:09:49 78.05, 73.31 89.02 10/20/2018 08:10:12 78.05, 73.37 89.04 1.52 23
3 10/22/2018 12:53:59 78.40, 3.95 90.26 10/22/2018 12:52:54 78.46, 0.33 90.06 81.04 65
4 10/22/2018 13:43:34 -78.07, 169.97 90.16 10/22/2018 13:43:48 -78.05, 170.07 90.17 3.29 14
5 10/24/2018 19:17:18 78.06, -93.49 90.62 10/24/2018 19:17:16 78.09, -93.42 90.65 2.90 2
6 10/27/2018 00:51:03 -78.08, 3.16 88.59 10/27/2018 00:50:52 -78.10, 3.16 88.58 2.16 11
7 10/27/2018 01:40:33 77.89, 169.93 91.18 10/27/2018 01:41:42 77.86, 171.84 91.31 44.76 69
8 10/29/2018 06:24:45 78.11, 99.87 92.20 10/29/2018 06:24:19 78.12, 99.76 92.19 2.78 26
9 10/29/2018 07:14:13 -78.09, -92.61 87.83 10/29/2018 07:15:22 -78.08, -92.74 87.82 3.19 69
10 10/31/2018 11:58:30 -78.13,-163.49 87.06 10/31/2018 11:57:54 -78.13,-163.61 87.07 2.64 36
11 10/31/2018 12:47:57 78.07, 3.87 92.88 10/31/2018 12:48:50 78.09, 3.92 92.92 2.42 53
12 11/02/2018 17:32:13 78.15, -66.83 93.69 11/02/2018 17:31:22 78.13, -66.87 93.65 2.63 51




NCC Satellite Simultaneous Nadir Overpasses (SNOs) Prediction Service
